DW8673 Jerrabomberra AU current weather conditions

sailwx.info

Wind from 261

Air temperature 34.4° C
Dewpoint -4.6° C

Last reported at 2018-Feb-18 06:08 UTC.
Time now 2018-Feb-18 06:40 UTC

Location: S 35°23' E 149°12'.
View on Google Maps.

See reports from other nearby stations

  
Tides and Currents Weather Stations Pressure Air Temp Water Temp Dewpoint Dewpoint Depression Visibility Wind Speed Wind Dir Waves Ship Positions
date/time (UTC)wind fromknots sea level pressurealtimeterstation pressurevisibilityair tempwater tempwave heightnotes
2018-Feb-18 06:08 261 34.4
2018-Feb-18 06:03 313 0 gusting 4 34.4
2018-Feb-18 05:48 34.4
2018-Feb-18 05:43 249 34.4
2018-Feb-18 05:38 302 34.4
2018-Feb-18 05:33 033 33.9
2018-Feb-18 05:18 257 34.4
2018-Feb-18 05:13 169 0 gusting 4 35.0
2018-Feb-18 05:08 246 35.6
2018-Feb-18 05:03 172 35.0
2018-Feb-18 04:48 235 0 gusting 2 36.1
2018-Feb-18 04:43 138 36.1
2018-Feb-18 04:38 275 36.1
2018-Feb-18 04:33 282 35.6
2018-Feb-18 04:18 295 35.6
2018-Feb-18 04:13 236 36.1
2018-Feb-18 04:08 222 1 gusting 2 36.1
2018-Feb-18 04:03 138 35.6
2018-Feb-18 03:48 227 0 gusting 2 36.1
2018-Feb-18 03:43 335 0 gusting 4 36.7
2018-Feb-18 03:38 258 36.7
2018-Feb-18 03:33 280 36.7
2018-Feb-18 03:18 346 36.7
2018-Feb-18 03:13 193 0 gusting 4 36.7
2018-Feb-18 03:08 215 37.2
2018-Feb-18 03:03 252 0 gusting 2 37.2
2018-Feb-18 02:48 219 36.7
2018-Feb-18 02:43 151 36.7
2018-Feb-18 02:38 309 0 gusting 4 36.1
2018-Feb-18 02:33 019 36.1
2018-Feb-18 02:18 317 0 gusting 2 36.1
2018-Feb-18 02:13 348 0 gusting 2 36.1
2018-Feb-18 02:08 321 0 gusting 2 35.6
2018-Feb-18 02:03 292 0 gusting 5 35.6
2018-Feb-18 01:48 274 0 gusting 5 35.6
2018-Feb-18 01:43 257 0 gusting 1 35.6
2018-Feb-18 01:38 094 35.6
2018-Feb-18 01:33 174 35.6
2018-Feb-18 01:18 008 35.0
2018-Feb-18 01:13 301 0 gusting 4 35.0
2018-Feb-18 01:08 317 0 gusting 4 35.0
2018-Feb-18 01:03 268 35.0
2018-Feb-18 00:48 267 35.0
2018-Feb-18 00:43 264 34.4
2018-Feb-18 00:38 291 34.4
2018-Feb-18 00:33 267 34.4
2018-Feb-18 00:18 060 0 gusting 2 33.9
2018-Feb-18 00:13 301 1 gusting 2 33.3
2018-Feb-18 00:08 250 0 gusting 4 33.3
2018-Feb-18 00:03 334 33.3
2018-Feb-17 23:48 293 1 gusting 2 32.8
2018-Feb-17 23:43 006 32.8
2018-Feb-17 23:38 057 32.2
2018-Feb-17 23:33 215 31.7
2018-Feb-17 23:18 221 0 gusting 0 30.6
2018-Feb-17 23:13 248 30.0
2018-Feb-17 23:08 167 29.4
2018-Feb-17 23:03 228 29.4
2018-Feb-17 22:48 179 28.3
2018-Feb-17 22:43 188 27.8
2018-Feb-17 22:38 349 27.2
2018-Feb-17 22:33 253 26.7
2018-Feb-17 22:18 202 25.6
2018-Feb-17 22:13 231 25.6
2018-Feb-17 22:08 265 25.0
2018-Feb-17 22:03 180 25.0
2018-Feb-17 21:48 210 23.3
2018-Feb-17 21:43 090 22.8
2018-Feb-17 21:38 160 22.8
2018-Feb-17 21:33 157 22.2
2018-Feb-17 21:18 018 19.4
2018-Feb-17 21:13 315 18.9
2018-Feb-17 21:08 045 17.8
2018-Feb-17 21:03 350 16.1
2018-Feb-17 20:48 045 13.9
2018-Feb-17 20:43 045 13.3
2018-Feb-17 20:38 045 13.3
2018-Feb-17 20:33 045 13.3
2018-Feb-17 20:18 045 13.3
2018-Feb-17 20:13 045 13.3
2018-Feb-17 20:08 088 13.3
2018-Feb-17 20:03 135 13.3
2018-Feb-17 19:48 090 13.3
2018-Feb-17 19:43 315 13.3
2018-Feb-17 19:38 292 13.3
2018-Feb-17 19:33 13.3
2018-Feb-17 19:18 270 13.3
2018-Feb-17 19:13 270 13.3
2018-Feb-17 19:08 270 13.3
2018-Feb-17 19:03 13.3
2018-Feb-17 18:48 158 13.3
2018-Feb-17 18:43 13.9
2018-Feb-17 18:38 004 13.9
2018-Feb-17 18:33 180 13.9
2018-Feb-17 18:18 339 13.9
2018-Feb-17 18:13 357 13.9
2018-Feb-17 18:08 158 13.9
2018-Feb-17 18:03 158 13.9
2018-Feb-17 17:48 14.4
2018-Feb-17 17:43 14.4
2018-Feb-17 17:38 14.4
2018-Feb-17 17:33 14.4
2018-Feb-17 17:18 035 14.4
2018-Feb-17 17:13 068 15.0
2018-Feb-17 17:08 068 15.0
2018-Feb-17 17:03 135 15.0
2018-Feb-17 16:48 342 15.0
2018-Feb-17 16:43 045 15.6
2018-Feb-17 16:38 045 15.6
2018-Feb-17 16:33 045 15.6
2018-Feb-17 16:18 045 16.1
2018-Feb-17 16:13 045 16.1
2018-Feb-17 16:08 031 16.1
2018-Feb-17 16:03 16.1
2018-Feb-17 15:48 063 16.1
2018-Feb-17 15:43 045 16.1
2018-Feb-17 15:38 034 16.1
2018-Feb-17 15:33 045 16.1
2018-Feb-17 15:18 16.7
2018-Feb-17 15:13 343 16.7
2018-Feb-17 15:08 16.7
2018-Feb-17 15:03 045 16.7
2018-Feb-17 14:48 037 17.2
2018-Feb-17 14:43 045 17.8
2018-Feb-17 14:38 17.8
2018-Feb-17 14:33 039 17.8
2018-Feb-17 14:18 158 18.9
2018-Feb-17 14:13 025 18.9
2018-Feb-17 14:08 325 18.9
2018-Feb-17 14:03 012 18.9
2018-Feb-17 13:48 020 18.9
2018-Feb-17 13:43 18.9
2018-Feb-17 13:38 324 18.9
2018-Feb-17 13:33 004 18.9
2018-Feb-17 13:18 037 18.9
2018-Feb-17 13:13 045 18.9
2018-Feb-17 13:08 357 19.4
2018-Feb-17 13:03 022 19.4
2018-Feb-17 12:48 026 20.0
2018-Feb-17 12:43 345 20.0
2018-Feb-17 12:38 344 20.6
2018-Feb-17 12:33 349 20.6
2018-Feb-17 12:13 351 21.1
2018-Feb-17 12:08 342 21.1
2018-Feb-17 12:03 343 0 gusting 2 21.1
2018-Feb-17 11:48 053 0 gusting 1 21.1
2018-Feb-17 11:43 037 2 gusting 4 20.6
2018-Feb-17 11:38 045 20.6
2018-Feb-17 11:33 022 20.6
2018-Feb-17 11:18 20.6
2018-Feb-17 11:13 036 21.1
2018-Feb-17 11:08 028 21.1
2018-Feb-17 11:03 022 21.1
2018-Feb-17 10:48 326 22.2
2018-Feb-17 10:43 326 22.2
2018-Feb-17 10:38 334 22.2
2018-Feb-17 10:33 322 22.2
2018-Feb-17 10:18 329 22.8
2018-Feb-17 10:13 332 23.3
2018-Feb-17 10:08 317 23.3
2018-Feb-17 10:03 341 23.3
2018-Feb-17 09:48 345 23.9
2018-Feb-17 09:43 323 23.9
2018-Feb-17 09:38 317 24.4
2018-Feb-17 09:33 319 24.4
2018-Feb-17 09:18 263 25.0
2018-Feb-17 09:13 331 25.0
2018-Feb-17 09:08 342 25.6
2018-Feb-17 09:03 303 25.6
2018-Feb-17 08:48 282 26.1
2018-Feb-17 08:43 303 26.1
2018-Feb-17 08:38 322 26.7
2018-Feb-17 08:33 299 26.7
2018-Feb-17 08:18 310 27.8
2018-Feb-17 08:13 267 27.8
2018-Feb-17 08:08 241 28.3
2018-Feb-17 08:03 290 28.3
2018-Feb-17 07:48 287 28.3
2018-Feb-17 07:43 333 0 gusting 1 28.9
2018-Feb-17 07:38 320 28.9
2018-Feb-17 07:33 271 28.9
2018-Feb-17 07:18 330 29.4
2018-Feb-17 07:13 257 30.0
2018-Feb-17 07:08 300 30.0
2018-Feb-17 07:03 313 30.6
2018-Feb-17 06:48 266 30.6
2018-Feb-17 06:43 292 0 gusting 5 30.6
2018-Feb-17 06:38 345 31.1
2018-Feb-17 06:33 286 31.7
2018-Feb-17 06:18 254 31.1
2018-Feb-17 06:13 187 0 gusting 1 31.1
2018-Feb-17 06:08 266 0 gusting 1 31.1
2018-Feb-17 06:03 266 31.1
2018-Feb-17 05:48 248 31.7
2018-Feb-17 05:43 296 0 gusting 4 31.7
2018-Feb-17 05:38 278 32.2
2018-Feb-17 05:33 319 0 gusting 5 32.2
2018-Feb-17 05:18 340 32.8
2018-Feb-17 05:13 271 0 gusting 1 32.8
2018-Feb-17 05:08 201 0 gusting 4 32.8
2018-Feb-17 05:03 267 33.3
2018-Feb-17 04:48 269 0 gusting 2 32.8
2018-Feb-17 04:43 179 0 gusting 4 32.8
2018-Feb-17 04:38 271 1 gusting 2 32.8
2018-Feb-17 04:33 258 0 gusting 2 33.3
2018-Feb-17 04:18 283 0 gusting 2 32.8
2018-Feb-17 04:13 302 1 gusting 6 32.8
2018-Feb-17 04:08 340 0 gusting 4 33.3
2018-Feb-17 04:03 253 33.3
2018-Feb-17 03:48 314 0 gusting 1 33.3
2018-Feb-17 03:43 256 33.9
2018-Feb-17 03:38 247 0 gusting 5 33.3
2018-Feb-17 03:33 317 0 gusting 5 33.9
2018-Feb-17 03:18 292 33.3
2018-Feb-17 03:13 259 0 gusting 1 33.3
2018-Feb-17 03:08 335 33.3
2018-Feb-17 03:03 322 0 gusting 5 32.8
2018-Feb-17 02:48 32.8
2018-Feb-17 02:43 273 0 gusting 5 32.8
2018-Feb-17 02:38 265 32.8
2018-Feb-17 02:33 155 32.8
2018-Feb-17 02:18 346 0 gusting 4 32.2
2018-Feb-17 02:13 047 0 gusting 4 32.2
2018-Feb-17 02:08 252 0 gusting 4 32.2
2018-Feb-17 02:03 255 0 gusting 6 31.7
2018-Feb-17 01:48 295 0 gusting 1 32.2
2018-Feb-17 01:43 120 1 gusting 4 31.1
2018-Feb-17 01:38 003 1 gusting 5 31.1
2018-Feb-17 01:33 228 0 gusting 6 31.7
2018-Feb-17 01:18 223 1 gusting 4 31.1
2018-Feb-17 01:13 239 0 gusting 2 31.1
2018-Feb-17 01:08 251 1 gusting 5 31.1
2018-Feb-17 01:03 115 0 gusting 5 30.6
2018-Feb-17 00:48 134 0 gusting 5 30.0
2018-Feb-17 00:43 351 1 gusting 4 30.0
2018-Feb-17 00:38 224 1 gusting 4 30.0
2018-Feb-17 00:33 307 0 gusting 4 30.0
2018-Feb-17 00:18 285 0 gusting 2 29.4
2018-Feb-17 00:13 308 0 gusting 5 29.4
2018-Feb-17 00:08 297 1 gusting 5 28.9
2018-Feb-17 00:03 291 0 gusting 5 28.9
2018-Feb-16 23:48 272 1 gusting 4 28.3
2018-Feb-16 23:43 281 0 gusting 4 27.8
2018-Feb-16 23:38 338 0 gusting 2 27.8
2018-Feb-16 23:33 264 0 gusting 4 27.8
2018-Feb-16 23:18 239 1 gusting 2 26.7
2018-Feb-16 23:13 251 27.2
2018-Feb-16 23:08 349 26.7
2018-Feb-16 23:03 025 0 gusting 2 26.1
2018-Feb-16 22:48 335 0 gusting 1 25.6
2018-Feb-16 22:43 301 0 gusting 4 25.0
2018-Feb-16 22:38 312 0 gusting 1 25.0
2018-Feb-16 22:33 258 0 gusting 4 24.4
2018-Feb-16 22:18 248 0 gusting 1 23.9
2018-Feb-16 22:13 233 0 gusting 1 22.8
2018-Feb-16 22:08 274 1 gusting 4 21.7
2018-Feb-16 22:03 294 0 gusting 4 21.7
2018-Feb-16 21:48 315 1 gusting 2 21.7
2018-Feb-16 21:43 112 1 gusting 4 21.7
2018-Feb-16 21:38 172 0 gusting 1 22.2
2018-Feb-16 21:18 028 0 gusting 2 20.6
2018-Feb-16 21:13 321 20.0
2018-Feb-16 21:08 258 18.9
2018-Feb-16 21:03 138 0 gusting 1 18.3
2018-Feb-16 20:48 009 16.1
2018-Feb-16 20:43 175 0 gusting 1 15.6
2018-Feb-16 20:38 202 0 gusting 0 15.6
2018-Feb-16 20:33 202 15.6
2018-Feb-16 20:18 178 0 gusting 1 15.6
2018-Feb-16 20:13 177 0 gusting 1 15.6
2018-Feb-16 20:08 108 0 gusting 1 15.6
2018-Feb-16 20:03 002 1 gusting 2 15.6
2018-Feb-16 19:48 167 15.0
2018-Feb-16 19:43 158 0 gusting 1 15.0
2018-Feb-16 19:38 172 0 gusting 1 15.0
2018-Feb-16 19:33 044 15.0
2018-Feb-16 19:18 045 15.0
2018-Feb-16 19:13 022 15.0
2018-Feb-16 19:08 022 15.0
2018-Feb-16 19:03 009 15.0
2018-Feb-16 18:48 180 15.0
2018-Feb-16 18:43 187 15.0
2018-Feb-16 18:38 182 15.0
2018-Feb-16 18:33 202 15.0
2018-Feb-16 18:18 224 15.6
2018-Feb-16 18:13 137 15.6
2018-Feb-16 18:08 190 15.6
2018-Feb-16 18:03 135 0 gusting 1 15.6
2018-Feb-16 17:48 169 15.6
2018-Feb-16 17:43 022 15.6
2018-Feb-16 17:38 045 15.0
2018-Feb-16 17:33 033 15.0
2018-Feb-16 17:18 045 15.0
2018-Feb-16 17:13 354 15.0
2018-Feb-16 17:08 15.6
2018-Feb-16 17:03 336 15.6
2018-Feb-16 16:48 135 16.1
2018-Feb-16 16:43 158 16.1
2018-Feb-16 16:38 169 0 gusting 1 16.7
2018-Feb-16 16:33 199 16.7
2018-Feb-16 16:18 210 1 gusting 2 16.7
2018-Feb-16 16:13 174 0 gusting 1 16.7
2018-Feb-16 16:08 009 16.7
2018-Feb-16 16:03 055 16.7
2018-Feb-16 15:48 107 16.7
2018-Feb-16 15:43 134 0 gusting 1 16.7
2018-Feb-16 15:38 019 16.7
2018-Feb-16 15:33 302 16.7
2018-Feb-16 15:18 120 1 gusting 2 16.7
2018-Feb-16 15:13 184 1 gusting 2 16.7
2018-Feb-16 15:08 192 16.7
2018-Feb-16 15:03 163 0 gusting 2 16.7
2018-Feb-16 14:48 136 16.7
2018-Feb-16 14:43 173 0 gusting 1 16.7
2018-Feb-16 14:38 187 0 gusting 2 16.7
2018-Feb-16 14:33 200 0 gusting 1 16.7
2018-Feb-16 14:18 155 1 gusting 4 16.7
2018-Feb-16 14:13 180 1 gusting 1 16.7
2018-Feb-16 14:08 180 0 gusting 1 16.7
2018-Feb-16 14:03 211 1 gusting 2 16.7
2018-Feb-16 13:48 213 0 gusting 1 16.7
2018-Feb-16 13:43 150 0 gusting 2 16.7
2018-Feb-16 13:38 218 0 gusting 2 16.1
2018-Feb-16 13:33 207 0 gusting 5 16.7
2018-Feb-16 13:18 150 0 gusting 2 16.7
2018-Feb-16 13:13 190 16.7
2018-Feb-16 13:08 202 16.1
2018-Feb-16 12:48 338 16.1
2018-Feb-16 12:43 161 16.1
2018-Feb-16 12:38 158 16.1
2018-Feb-16 12:33 047 0 gusting 0 15.6
2018-Feb-16 12:13 196 0 gusting 2 16.1
2018-Feb-16 12:08 224 0 gusting 1 16.1
2018-Feb-16 12:03 158 0 gusting 1 16.1
2018-Feb-16 11:48 195 16.1
2018-Feb-16 11:43 203 1 gusting 4 16.1
2018-Feb-16 11:38 201 0 gusting 1 16.1
2018-Feb-16 11:33 225 1 gusting 4 16.1
2018-Feb-16 11:18 165 0 gusting 2 16.7
2018-Feb-16 11:13 224 1 gusting 4 16.7
2018-Feb-16 11:08 207 0 gusting 2 16.7
2018-Feb-16 11:03 219 1 gusting 2 16.7
2018-Feb-16 10:48 259 0 gusting 2 16.7
2018-Feb-16 10:43 188 1 gusting 4 17.2
2018-Feb-16 10:38 239 1 gusting 4 17.2
2018-Feb-16 10:33 225 1 gusting 5 17.2
2018-Feb-16 10:18 171 1 gusting 5 17.8
2018-Feb-16 10:13 192 1 gusting 5 17.8
2018-Feb-16 10:08 242 0 gusting 5 17.8
2018-Feb-16 10:03 232 1 gusting 5 18.3
2018-Feb-16 09:48 248 1 gusting 2 18.9
2018-Feb-16 09:43 260 0 gusting 4 18.9
2018-Feb-16 09:38 201 1 gusting 2 18.9
2018-Feb-16 09:33 167 1 gusting 4 18.9
2018-Feb-16 09:18 216 1 gusting 5 19.4
2018-Feb-16 09:13 138 0 gusting 4 20.0
2018-Feb-16 09:08 315 1 gusting 4 20.0
2018-Feb-16 09:03 212 0 gusting 6 20.6
2018-Feb-16 08:48 309 2 gusting 5 22.2
2018-Feb-16 08:43 219 1 gusting 5 22.8
2018-Feb-16 08:38 112 0 gusting 2 23.3
2018-Feb-16 08:33 185 0 gusting 5 23.9
2018-Feb-16 08:18 136 0 gusting 1 26.1
2018-Feb-16 08:13 263 0 gusting 4 26.1
2018-Feb-16 08:08 290 1 gusting 2 26.7
2018-Feb-16 08:03 249 26.7
2018-Feb-16 07:48 295 0 gusting 2 27.2
2018-Feb-16 07:43 280 0 gusting 5 27.2
2018-Feb-16 07:38 315 0 gusting 4 27.2
2018-Feb-16 07:33 231 1 gusting 6 27.8
2018-Feb-16 07:18 336 0 gusting 4 28.3
2018-Feb-16 07:13 238 28.3
2018-Feb-16 07:08 230 0 gusting 5 28.3
2018-Feb-16 07:03 230 0 gusting 6 28.3
2018-Feb-16 06:48 239 0 gusting 5 28.9
2018-Feb-16 06:43 330 0 gusting 5 28.9
2018-Feb-16 06:38 282 28.9
2018-Feb-16 06:33 268 1 gusting 5 29.4
2018-Feb-16 06:22 278 0 gusting 2 29.4
2018-Feb-16 06:13 270 1 gusting 5 29.4
2018-Feb-16 06:08 260 0 gusting 5 29.4
2018-Feb-16 06:03 254 0 gusting 4 29.4